�������l�o���
Date,Time,MP-1(��Sv/h),MP-2(��Sv/h),MP-3(��Sv/h),MP-4(��Sv/h),MP-5(��Sv/h),MP-6(��Sv/h),MP-7(��Sv/h),MP-8(��Sv/h),����,����(m/s),���J
2019/11/18,00:00,0.726,1.052,0.690,1.301,0.921,0.413,0.724,0.684,��,1.2,��
2019/11/18,00:10,0.726,1.054,0.692,1.301,0.919,0.414,0.723,0.686,��,2.3,��
2019/11/18,00:20,0.727,1.054,0.692,1.303,0.920,0.413,0.722,0.685,��,2.7,��
2019/11/18,00:30,0.728,1.051,0.694,1.303,0.919,0.413,0.722,0.685,��,3.3,��
2019/11/18,00:40,0.728,1.052,0.691,1.303,0.920,0.414,0.723,0.685,��쐼,3.6,��
2019/11/18,00:50,0.728,1.052,0.693,1.303,0.920,0.413,0.724,0.684,��쐼,3.3,��
2019/11/18,01:00,0.727,1.050,0.692,1.301,0.920,0.413,0.722,0.684,��,3.4,��
2019/11/18,01:10,0.728,1.053,0.693,1.301,0.918,0.414,0.722,0.684,��,4.7,��
2019/11/18,01:20,0.728,1.051,0.691,1.301,0.920,0.412,0.723,0.684,��쐼,4.3,��
2019/11/18,01:30,0.728,1.053,0.693,1.302,0.919,0.414,0.723,0.686,��쐼,4.2,��
2019/11/18,01:40,0.727,1.049,0.694,1.302,0.918,0.414,0.723,0.683,��,4.4,��
2019/11/18,01:50,0.727,1.052,0.691,1.301,0.920,0.414,0.724,0.686,��,4.6,��
2019/11/18,02:00,0.728,1.049,0.692,1.299,0.919,0.413,0.725,0.685,��쐼,5.2,��
2019/11/18,02:10,0.729,1.051,0.692,1.301,0.918,0.415,0.722,0.683,��,4.9,��
2019/11/18,02:20,0.725,1.053,0.691,1.304,0.919,0.414,0.724,0.684,��,5.2,��
2019/11/18,02:30,0.728,1.048,0.692,1.304,0.919,0.415,0.723,0.684,��쐼,5.5,��
2019/11/18,02:40,0.726,1.053,0.693,1.301,0.920,0.415,0.723,0.685,��,5.3,��
2019/11/18,02:50,0.730,1.050,0.692,1.301,0.918,0.415,0.723,0.685,��,5.3,��
2019/11/18,03:00,0.726,1.051,0.693,1.300,0.921,0.415,0.723,0.683,��,6.0,��
2019/11/18,03:10,0.729,1.049,0.693,1.303,0.918,0.414,0.724,0.685,��,5.6,��
2019/11/18,03:20,0.727,1.051,0.692,1.301,0.918,0.415,0.724,0.685,��,5.6,��
2019/11/18,03:30,0.726,1.051,0.692,1.300,0.918,0.414,0.723,0.684,��,4.6,��
2019/11/18,03:40,0.726,1.052,0.693,1.301,0.920,0.415,0.723,0.685,��,4.9,��
2019/11/18,03:50,0.727,1.049,0.693,1.300,0.918,0.416,0.722,0.684,��쐼,4.6,��
2019/11/18,04:00,0.727,1.052,0.692,1.302,0.919,0.414,0.723,0.685,��쐼,4.9,��
2019/11/18,04:10,0.728,1.051,0.693,1.300,0.919,0.415,0.723,0.684,��쐼,5.3,��
2019/11/18,04:20,0.730,1.050,0.691,1.303,0.919,0.415,0.723,0.683,��쐼,6.6,��
2019/11/18,04:30,0.729,1.048,0.691,1.301,0.918,0.414,0.722,0.685,��,7.7,��
2019/11/18,04:40,0.729,1.050,0.691,1.302,0.920,0.415,0.723,0.685,��,7.7,��
2019/11/18,04:50,0.728,1.049,0.694,1.301,0.919,0.415,0.723,0.684,��,7.7,��
2019/11/18,05:00,0.730,1.051,0.691,1.301,0.918,0.416,0.725,0.683,��,6.7,��
2019/11/18,05:10,0.728,1.051,0.694,1.302,0.918,0.415,0.724,0.684,��,6.9,��
2019/11/18,05:20,0.729,1.050,0.694,1.301,0.917,0.415,0.723,0.684,��,6.0,��
2019/11/18,05:30,0.728,1.050,0.692,1.300,0.919,0.414,0.724,0.686,��,5.2,��
2019/11/18,05:40,0.729,1.053,0.693,1.303,0.918,0.415,0.724,0.684,��쐼,3.6,��
2019/11/18,05:50,0.729,1.049,0.694,1.301,0.920,0.415,0.723,0.684,��쐼,4.5,��
2019/11/18,06:00,0.729,1.052,0.693,1.305,0.919,0.415,0.725,0.685,��,5.5,��
2019/11/18,06:10,0.730,1.051,0.693,1.300,0.920,0.414,0.723,0.686,��,6.1,��
2019/11/18,06:20,0.730,1.052,0.694,1.303,0.918,0.415,0.723,0.684,��,6.3,��
2019/11/18,06:30,0.731,1.052,0.695,1.303,0.919,0.416,0.723,0.686,��,7.2,��
2019/11/18,06:40,0.730,1.050,0.692,1.302,0.919,0.415,0.725,0.685,��쓌,8.2,��
2019/11/18,06:50,0.728,1.051,0.693,1.302,0.919,0.415,0.724,0.684,��,8.0,��
2019/11/18,07:00,0.729,1.050,0.695,1.303,0.918,0.416,0.724,0.685,��쓌,8.3,��
2019/11/18,07:10,0.730,1.050,0.694,1.302,0.921,0.416,0.724,0.685,��쓌,7.8,��
2019/11/18,07:20,0.732,1.051,0.692,1.301,0.920,0.415,0.726,0.685,��쓌,8.5,��
2019/11/18,07:30,0.731,1.051,0.696,1.303,0.918,0.415,0.725,0.685,��,7.8,��
2019/11/18,07:40,0.731,1.051,0.693,1.303,0.918,0.416,0.727,0.686,��쓌,8.2,��
2019/11/18,07:50,0.731,1.051,0.693,1.304,0.919,0.416,0.726,0.685,��,7.4,��
2019/11/18,08:00,0.731,1.048,0.693,1.305,0.921,0.415,0.725,0.686,��,7.4,��
2019/11/18,08:10,0.730,1.052,0.692,1.301,0.919,0.416,0.725,0.686,��쓌,7.7,��
2019/11/18,08:20,0.733,1.054,0.694,1.303,0.920,0.416,0.725,0.685,��쓌,8.8,��
2019/11/18,08:30,0.732,1.049,0.694,1.303,0.919,0.416,0.725,0.686,��쓌,8.0,��
2019/11/18,08:40,0.732,1.054,0.694,1.300,0.921,0.416,0.725,0.686,��,8.2,��
2019/11/18,08:50,0.731,1.051,0.693,1.301,0.921,0.417,0.725,0.688,��,8.8,��
2019/11/18,09:00,0.734,1.052,0.694,1.303,0.921,0.416,0.724,0.688,��,6.9,��
2019/11/18,09:10,0.733,1.050,0.696,1.301,0.919,0.418,0.724,0.687,��,7.2,��
2019/11/18,09:20,0.735,1.048,0.696,1.306,0.918,0.418,0.724,0.688,��,7.5,��
2019/11/18,09:30,0.735,1.046,0.694,1.304,0.919,0.418,0.726,0.686,��,10.8,��
2019/11/18,09:40,0.733,1.047,0.696,1.302,0.920,0.418,0.725,0.687,��,9.4,��
2019/11/18,09:50,0.731,1.048,0.694,1.302,0.918,0.420,0.725,0.689,��,8.5,��
2019/11/18,10:00,0.731,1.046,0.697,1.303,0.918,0.416,0.725,0.688,��,9.6,��
2019/11/18,10:10,0.731,1.045,0.696,1.305,0.920,0.416,0.725,0.687,��,10.2,�L
2019/11/18,10:20,0.732,1.047,0.696,1.306,0.920,0.416,0.725,0.689,��쐼,8.5,�L
2019/11/18,10:30,0.732,1.048,0.695,1.307,0.920,0.418,0.725,0.686,��,8.9,��
2019/11/18,10:40,0.731,1.050,0.696,1.304,0.918,0.418,0.727,0.686,��,9.3,�L
2019/11/18,10:50,0.731,1.048,0.693,1.305,0.920,0.419,0.726,0.687,��,9.9,�L
2019/11/18,11:00,0.731,1.049,0.696,1.307,0.921,0.418,0.727,0.686,��,11.2,�L
2019/11/18,11:10,0.733,1.048,0.696,1.304,0.920,0.418,0.725,0.685,��,8.5,�L
2019/11/18,11:20,0.734,1.050,0.694,1.303,0.920,0.418,0.726,0.686,��,9.7,�L
2019/11/18,11:30,0.732,1.048,0.693,1.306,0.919,0.418,0.724,0.684,��,8.9,�L
2019/11/18,11:40,0.732,1.048,0.692,1.308,0.918,0.418,0.725,0.684,��,9.9,�L
2019/11/18,11:50,0.732,1.050,0.693,1.305,0.918,0.418,0.725,0.683,��,10.2,��
2019/11/18,12:00,0.735,1.052,0.696,1.306,0.919,0.419,0.725,0.685,��,9.6,��
2019/11/18,12:10,0.735,1.049,0.696,1.307,0.918,0.419,0.726,0.687,��,9.6,��
2019/11/18,12:20,0.732,1.053,0.696,1.304,0.922,0.421,0.727,0.689,��,8.6,��
2019/11/18,12:30,0.733,1.053,0.696,1.304,0.922,0.422,0.726,0.689,��,11.6,��
2019/11/18,12:40,0.733,1.054,0.695,1.305,0.920,0.421,0.727,0.687,��,9.6,��
2019/11/18,12:50,0.732,1.054,0.696,1.304,0.918,0.422,0.725,0.685,��,10.8,��
2019/11/18,13:00,0.733,1.052,0.694,1.304,0.919,0.419,0.727,0.684,��,8.5,��
2019/11/18,13:10,0.732,1.052,0.694,1.307,0.918,0.421,0.727,0.684,��,8.9,��
2019/11/18,13:20,0.733,1.050,0.698,1.303,0.920,0.419,0.727,0.685,��,11.9,��
2019/11/18,13:30,0.732,1.052,0.696,1.305,0.921,0.419,0.726,0.685,��,10.8,��
2019/11/18,13:40,0.733,1.050,0.695,1.306,0.919,0.420,0.725,0.684,��,9.6,��
2019/11/18,13:50,0.733,1.047,0.695,1.306,0.920,0.420,0.727,0.685,��,11.3,��
2019/11/18,14:00,0.735,1.050,0.696,1.303,0.922,0.419,0.728,0.685,��,11.3,��
2019/11/18,14:10,0.734,1.049,0.694,1.304,0.921,0.420,0.727,0.685,��,10.2,��
2019/11/18,14:20,0.732,1.050,0.694,1.307,0.918,0.420,0.727,0.684,��,9.9,��
2019/11/18,14:30,0.735,1.051,0.696,1.307,0.917,0.420,0.727,0.684,��,9.6,��
2019/11/18,14:40,0.734,1.052,0.694,1.305,0.921,0.421,0.725,0.685,��,8.0,��
2019/11/18,14:50,0.733,1.053,0.694,1.306,0.920,0.421,0.727,0.686,��,8.0,��
2019/11/18,15:00,0.733,1.052,0.694,1.305,0.920,0.422,0.726,0.687,��,8.3,��
2019/11/18,15:10,0.734,1.057,0.694,1.308,0.919,0.421,0.726,0.685,��,7.8,��
2019/11/18,15:20,0.732,1.055,0.696,1.304,0.922,0.422,0.727,0.687,��,6.3,��
2019/11/18,15:30,0.733,1.054,0.694,1.306,0.919,0.420,0.728,0.686,��쐼,7.4,��
2019/11/18,15:40,0.736,1.056,0.695,1.305,0.921,0.420,0.727,0.685,��쐼,8.5,��
2019/11/18,15:50,0.734,1.056,0.696,1.310,0.919,0.424,0.728,0.686,��쐼,10.8,��
2019/11/18,16:00,0.734,1.056,0.696,1.306,0.920,0.422,0.727,0.686,�쐼,10.5,��
2019/11/18,16:10,0.733,1.054,0.695,1.306,0.922,0.422,0.728,0.687,�쐼,11.0,��
2019/11/18,16:20,0.733,1.054,0.695,1.307,0.920,0.421,0.728,0.687,��쐼,10.5,��
2019/11/18,16:30,0.734,1.055,0.694,1.305,0.919,0.421,0.728,0.687,�쐼,9.1,��
2019/11/18,16:40,0.734,1.053,0.695,1.304,0.919,0.421,0.728,0.687,��쐼,7.5,��
2019/11/18,16:50,0.734,1.054,0.696,1.307,0.921,0.419,0.726,0.685,��쐼,9.1,��
2019/11/18,17:00,0.737,1.053,0.697,1.305,0.921,0.419,0.728,0.688,�쐼,10.5,��
2019/11/18,17:10,0.733,1.053,0.699,1.306,0.920,0.420,0.729,0.688,�쐼,11.1,��
2019/11/18,17:20,0.735,1.055,0.699,1.306,0.922,0.420,0.728,0.688,�쐼,10.1,��
2019/11/18,17:30,0.735,1.053,0.699,1.307,0.921,0.421,0.729,0.688,�쐼,10.8,��
2019/11/18,17:40,0.736,1.054,0.697,1.309,0.918,0.421,0.728,0.688,�쐼,9.9,��
2019/11/18,17:50,0.735,1.054,0.701,1.306,0.921,0.422,0.728,0.688,��쐼,9.4,��
2019/11/18,18:00,0.733,1.054,0.698,1.307,0.921,0.422,0.728,0.688,�쐼,8.0,��
2019/11/18,18:10,0.738,1.055,0.699,1.306,0.923,0.422,0.729,0.690,�쐼,8.9,��
2019/11/18,18:20,0.734,1.056,0.699,1.308,0.922,0.421,0.728,0.689,�쐼,9.9,��
2019/11/18,18:30,0.734,1.053,0.699,1.310,0.922,0.420,0.728,0.690,��쐼,9.6,��
2019/11/18,18:40,0.736,1.055,0.698,1.307,0.921,0.422,0.729,0.691,�쐼,10.8,��
2019/11/18,18:50,0.735,1.056,0.699,1.309,0.925,0.422,0.728,0.689,�쐼,8.5,��
2019/11/18,19:00,0.735,1.055,0.701,1.309,0.924,0.422,0.729,0.689,�쐼,6.3,��
2019/11/18,19:10,0.734,1.055,0.700,1.310,0.921,0.420,0.727,0.688,�쐼,5.2,��
2019/11/18,19:20,0.738,1.053,0.700,1.307,0.920,0.421,0.729,0.688,���쐼,5.5,��
2019/11/18,19:30,0.736,1.054,0.701,1.307,0.923,0.421,0.728,0.688,���쐼,4.1,��
2019/11/18,19:40,0.738,1.055,0.700,1.308,0.923,0.422,0.729,0.689,�쐼,3.2,��
2019/11/18,19:50,0.736,1.056,0.699,1.307,0.920,0.421,0.728,0.690,��쐼,2.7,��
2019/11/18,20:00,0.738,1.056,0.700,1.308,0.924,0.422,0.728,0.687,��쐼,4.2,��
2019/11/18,20:10,0.736,1.057,0.699,1.309,0.924,0.422,0.728,0.690,��쐼,4.2,��
2019/11/18,20:20,0.738,1.055,0.698,1.307,0.924,0.423,0.729,0.689,�쐼,3.6,��
2019/11/18,20:30,0.739,1.057,0.699,1.308,0.927,0.423,0.728,0.688,��,3.6,��
2019/11/18,20:40,0.737,1.057,0.700,1.308,0.923,0.422,0.729,0.689,��,4.2,��
2019/11/18,20:50,0.738,1.059,0.699,1.307,0.924,0.422,0.727,0.689,��쐼,4.5,��
2019/11/18,21:00,0.739,1.057,0.699,1.310,0.925,0.422,0.728,0.690,��쐼,4.2,��
2019/11/18,21:10,0.738,1.055,0.703,1.309,0.922,0.421,0.729,0.687,��,3.8,��
2019/11/18,21:20,0.737,1.057,0.698,1.308,0.922,0.422,0.727,0.689,��쐼,2.6,��
2019/11/18,21:30,0.737,1.057,0.699,1.307,0.924,0.421,0.728,0.689,��쐼,2.9,��
2019/11/18,21:40,0.738,1.056,0.700,1.307,0.921,0.422,0.726,0.688,��쐼,2.4,��
2019/11/18,21:50,0.738,1.056,0.699,1.309,0.924,0.420,0.728,0.690,��쐼,3.3,��
2019/11/18,22:00,0.735,1.056,0.697,1.308,0.923,0.421,0.726,0.689,�쐼,4.6,��
2019/11/18,22:10,0.737,1.057,0.701,1.308,0.926,0.421,0.728,0.690,���쐼,3.6,��
2019/11/18,22:20,0.737,1.056,0.698,1.308,0.925,0.421,0.728,0.689,�쐼,1.7,��
2019/11/18,22:30,0.738,1.056,0.700,1.305,0.924,0.421,0.729,0.688,�쐼,0.8,��
2019/11/18,22:40,0.735,1.056,0.700,1.308,0.924,0.420,0.727,0.690,���쐼,2.1,��
2019/11/18,22:50,0.736,1.055,0.700,1.308,0.925,0.422,0.727,0.689,���쐼,3.4,��
2019/11/18,23:00,0.737,1.057,0.698,1.305,0.923,0.423,0.729,0.690,���쐼,5.3,��
2019/11/18,23:10,0.737,1.057,0.699,1.311,0.923,0.421,0.729,0.689,���쐼,5.7,��
2019/11/18,23:20,0.736,1.057,0.700,1.308,0.926,0.421,0.728,0.688,��,7.4,��
2019/11/18,23:30,0.738,1.058,0.700,1.311,0.925,0.421,0.728,0.689,���쐼,6.3,��
2019/11/18,23:40,0.738,1.058,0.699,1.307,0.926,0.420,0.728,0.690,���쐼,5.5,��
2019/11/18,23:50,0.740,1.056,0.698,1.306,0.924,0.422,0.727,0.688,���쐼,4.9,�L
